This is the latest recevied weather packets stored in our database for station/object W8UFO-13. If no packets are shown the sender has not sent any weather packets the latest 10 day(s).
| Time | Temp. | Humidity | Pressure | Rain* | Wind** | Luminosity | Snow |
|---|---|---|---|---|---|---|---|
| 1777307058 | 25.56° C | 63% | 1020.8 hPa | 0 mm | - | - | - |
| 1777306758 | 25° C | 67% | 1020.9 hPa | 0 mm | - | - | - |
| 1777306458 | 25° C | 60% | 1021.1 hPa | 0 mm | - | - | - |
| 1777306157 | 25° C | 63% | 1021.2 hPa | 0 mm | - | - | - |
| 1777305857 | 24.44° C | 64% | 1021.3 hPa | 0 mm | - | - | - |
| 1777305557 | 23.89° C | 64% | 1021.3 hPa | 0 mm | - | - | - |
| 1777305257 | 23.89° C | 64% | 1021.5 hPa | 0 mm | - | - | - |
| 1777304958 | 23.89° C | 66% | 1021.5 hPa | 0 mm | - | - | - |
| 1777304657 | 23.33° C | 65% | 1021.6 hPa | 0 mm | - | - | - |
| 1777304357 | 23.33° C | 66% | 1021.5 hPa | 0 mm | - | - | - |
| 1777304057 | 23.33° C | 71% | 1021.5 hPa | 0 mm | - | - | - |
| 1777303757 | 22.78° C | 68% | 1021.4 hPa | 0 mm | - | - | - |
| 1777303457 | 22.22° C | 70% | 1021.5 hPa | 0 mm | - | - | - |
| 1777303157 | 22.22° C | 71% | 1021.6 hPa | 0 mm | - | - | - |
| 1777302857 | 21.67° C | 73% | 1021.3 hPa | 0 mm | - | - | - |
| 1777302557 | 21.67° C | 72% | 1021.5 hPa | 0 mm | - | - | - |
| 1777302257 | 21.11° C | 74% | 1021.5 hPa | 0 mm | - | - | - |
| 1777301958 | 20.56° C | 75% | 1021.4 hPa | 0 mm | - | - | - |
| 1777301658 | 20.56° C | 75% | 1021.4 hPa | 0 mm | - | - | - |
| 1777301358 | 20.56° C | 74% | 1021.4 hPa | 0 mm | - | - | - |
| 1777301058 | 20.56° C | 75% | 1021.3 hPa | 0 mm | - | - | - |
| 1777300758 | 20.56° C | 76% | 1021.2 hPa | 0 mm | - | - | - |
| 1777300457 | 20° C | 75% | 1021.1 hPa | 0 mm | - | - | - |
| 1777300158 | 20° C | 76% | 1020.8 hPa | 0 mm | - | - | - |
| 1777299857 | 20° C | 78% | 1020.9 hPa | 0 mm | - | - | - |
* Rain latest hour (hover to see other rain measurements)
** Current wind speed in m/s (hover to see current wind gust speed)